Time,TemperatureF,DewpointF,PressureIn,WindDirection,WindDirectionDegrees,WindSpeedMPH,WindSpeedGustMPH,Humidity,HourlyPrecipIn,Conditions,Clouds,dailyrainin,SoftwareType,DateUTC
2013-03-05 00:00:00,65.5,64.9,29.68,SW,225,2.7,-999.0,98,-99.99,,,0.00,Acu-Link.com,2013-03-05 06:00:00,
2013-03-05 00:15:00,65.5,64.9,29.69,WSW,247,2.7,-999.0,98,-99.99,,,0.00,Acu-Link.com,2013-03-05 06:15:00,
2013-03-05 00:30:00,65.5,64.9,29.68,SW,225,2.2,-999.0,98,-99.99,,,0.00,Acu-Link.com,2013-03-05 06:30:00,
2013-03-05 00:45:00,65.3,64.7,29.68,SW,225,5.3,-999.0,98,-99.99,,,0.00,Acu-Link.com,2013-03-05 06:45:00,
2013-03-05 01:00:00,65.3,64.7,29.67,South,180,2.7,-999.0,98,-99.99,,,0.00,Acu-Link.com,2013-03-05 07:00:00,
2013-03-05 01:16:00,64.8,64.2,29.67,SSE,157,1.7,-999.0,98,-99.99,,,0.00,Acu-Link.com,2013-03-05 07:16:00,
2013-03-05 01:31:00,64.8,64.2,29.68,SSE,157,7.3,-999.0,98,-99.99,,,0.00,Acu-Link.com,2013-03-05 07:31:00,
2013-03-05 01:46:00,64.9,64.3,29.68,South,180,4.7,-999.0,98,-99.99,,,0.00,Acu-Link.com,2013-03-05 07:46:00,
2013-03-05 02:01:00,64.8,64.2,29.67,South,180,3.7,-999.0,98,-99.99,,,0.00,Acu-Link.com,2013-03-05 08:01:00,
2013-03-05 02:16:00,64.8,64.2,29.67,SE,135,6.3,-999.0,98,-99.99,,,0.00,Acu-Link.com,2013-03-05 08:16:00,
2013-03-05 02:31:00,64.8,64.2,29.66,SSE,157,1.7,-999.0,98,-99.99,,,0.00,Acu-Link.com,2013-03-05 08:31:00,
2013-03-05 02:46:00,64.8,64.2,29.66,SE,135,4.2,-999.0,98,-99.99,,,0.00,Acu-Link.com,2013-03-05 08:46:00,
2013-03-05 03:01:00,64.6,64.0,29.65,South,180,6.3,-999.0,98,-99.99,,,0.00,Acu-Link.com,2013-03-05 09:01:00,
2013-03-05 03:16:00,64.8,64.2,29.66,SW,225,5.3,-999.0,98,-99.99,,,0.00,Acu-Link.com,2013-03-05 09:16:00,
2013-03-05 03:32:00,64.8,64.2,29.66,SSE,157,4.7,-999.0,98,-99.99,,,0.00,Acu-Link.com,2013-03-05 09:32:00,
2013-03-05 03:47:00,64.8,64.2,29.67,South,180,5.8,-999.0,98,-99.99,,,0.00,Acu-Link.com,2013-03-05 09:47:00,
2013-03-05 04:02:00,64.9,64.3,29.67,SSW,202,6.3,-999.0,98,-99.99,,,0.00,Acu-Link.com,2013-03-05 10:02:00,
2013-03-05 04:17:00,65.1,64.5,29.68,SW,225,7.8,-999.0,98,-99.99,,,0.00,Acu-Link.com,2013-03-05 10:17:00,
2013-03-05 04:32:00,65.5,64.9,29.72,WNW,292,8.9,-999.0,98,-99.99,,,0.00,Acu-Link.com,2013-03-05 10:32:00,
2013-03-05 04:47:00,65.8,65.2,29.77,WNW,292,7.3,-999.0,98,-99.99,,,0.00,Acu-Link.com,2013-03-05 10:47:00,
2013-03-05 05:02:00,65.8,65.2,29.77,SW,225,3.2,-999.0,98,-99.99,,,0.00,Acu-Link.com,2013-03-05 11:02:00,
2013-03-05 05:17:00,65.7,65.1,29.79,West,270,3.7,-999.0,98,-99.99,,,0.00,Acu-Link.com,2013-03-05 11:17:00,
2013-03-05 05:32:00,65.5,64.9,29.79,West,270,2.7,-999.0,98,-99.99,,,0.00,Acu-Link.com,2013-03-05 11:32:00,
2013-03-05 05:48:00,65.5,64.9,29.78,South,180,2.2,-999.0,98,-99.99,,,0.00,Acu-Link.com,2013-03-05 11:48:00,
2013-03-05 06:03:00,65.3,64.7,29.80,NNW,337,0.0,-999.0,98,-99.99,,,0.00,Acu-Link.com,2013-03-05 12:03:00,
2013-03-05 06:18:00,64.9,64.3,29.79,SSE,157,2.7,-999.0,98,-99.99,,,0.00,Acu-Link.com,2013-03-05 12:18:00,
2013-03-05 06:33:00,64.6,64.0,29.80,SW,225,1.7,-999.0,98,-99.99,,,0.00,Acu-Link.com,2013-03-05 12:33:00,
2013-03-05 06:48:00,64.0,63.4,29.80,SW,225,0.0,-999.0,98,-99.99,,,0.00,Acu-Link.com,2013-03-05 12:48:00,
2013-03-05 07:03:00,63.9,63.3,29.81,West,270,0.0,-999.0,98,-99.99,,,0.00,Acu-Link.com,2013-03-05 13:03:00,
2013-03-05 07:18:00,64.6,64.0,29.82,WSW,247,1.1,-999.0,98,-99.99,,,0.00,Acu-Link.com,2013-03-05 13:18:00,
2013-03-05 07:33:00,65.1,64.5,29.83,WSW,247,1.7,-999.0,98,-99.99,,,0.00,Acu-Link.com,2013-03-05 13:33:00,
2013-03-05 07:48:00,65.5,64.9,29.84,West,270,3.2,-999.0,98,-99.99,,,0.00,Acu-Link.com,2013-03-05 13:48:00,
2013-03-05 08:04:00,65.7,65.1,29.85,NW,315,11.4,-999.0,98,-99.99,,,0.00,Acu-Link.com,2013-03-05 14:04:00,
2013-03-05 08:19:00,65.1,62.1,29.87,NW,315,10.4,-999.0,90,-99.99,,,0.00,Acu-Link.com,2013-03-05 14:19:00,
2013-03-05 08:34:00,63.9,59.3,29.90,WNW,292,13.5,-999.0,85,-99.99,,,0.00,Acu-Link.com,2013-03-05 14:34:00,
2013-03-05 08:49:00,62.8,57.2,29.91,West,270,6.8,-999.0,82,-99.99,,,0.00,Acu-Link.com,2013-03-05 14:49:00,
2013-03-05 09:04:00,61.2,53.6,29.93,NW,315,7.8,-999.0,76,-99.99,,,0.00,Acu-Link.com,2013-03-05 15:04:00,
2013-03-05 09:19:00,61.0,53.0,29.94,WNW,292,14.5,-999.0,75,-99.99,,,0.00,Acu-Link.com,2013-03-05 15:19:00,
2013-03-05 09:34:00,60.3,51.2,29.95,North,0,11.4,-999.0,72,-99.99,,,0.00,Acu-Link.com,2013-03-05 15:34:00,
2013-03-05 09:49:00,61.9,51.2,29.95,NNE,22,8.9,-999.0,68,-99.99,,,0.00,Acu-Link.com,2013-03-05 15:49:00,
2013-03-05 10:04:00,62.2,49.9,29.95,NNE,22,11.4,-999.0,64,-99.99,,,0.00,Acu-Link.com,2013-03-05 16:04:00,
2013-03-05 10:20:00,63.3,50.5,29.96,NW,315,6.8,-999.0,63,-99.99,,,0.00,Acu-Link.com,2013-03-05 16:20:00,
2013-03-05 10:35:00,64.0,49.8,29.96,NNE,22,10.4,-999.0,60,-99.99,,,0.00,Acu-Link.com,2013-03-05 16:35:00,
2013-03-05 10:50:00,64.8,50.6,29.96,NNE,22,15.0,-999.0,60,-99.99,,,0.00,Acu-Link.com,2013-03-05 16:50:00,
2013-03-05 11:05:00,65.3,49.7,29.97,NE,45,7.3,-999.0,57,-99.99,,,0.00,Acu-Link.com,2013-03-05 17:05:00,
2013-03-05 11:20:00,66.4,48.7,29.96,NW,315,11.9,-999.0,53,-99.99,,,0.00,Acu-Link.com,2013-03-05 17:20:00,
2013-03-05 11:35:00,66.9,48.7,29.96,NNE,22,10.9,-999.0,52,-99.99,,,0.00,Acu-Link.com,2013-03-05 17:35:00,
2013-03-05 11:50:00,68.0,49.2,29.97,West,270,17.6,-999.0,51,-99.99,,,0.00,Acu-Link.com,2013-03-05 17:50:00,
2013-03-05 12:05:00,67.6,48.3,29.97,NNE,22,9.4,-999.0,50,-99.99,,,0.00,Acu-Link.com,2013-03-05 18:05:00,
2013-03-05 12:20:00,68.7,47.6,29.96,NNW,337,15.5,-999.0,47,-99.99,,,0.00,Acu-Link.com,2013-03-05 18:20:00,
2013-03-05 12:36:00,68.0,47.6,29.96,NNW,337,11.9,-999.0,48,-99.99,,,0.00,Acu-Link.com,2013-03-05 18:36:00,
2013-03-05 12:51:00,68.5,46.3,29.96,NNE,22,15.5,-999.0,45,-99.99,,,0.00,Acu-Link.com,2013-03-05 18:51:00,
2013-03-05 13:06:00,68.7,45.9,29.96,NNE,22,7.3,-999.0,44,-99.99,,,0.00,Acu-Link.com,2013-03-05 19:06:00,
2013-03-05 13:21:00,69.8,47.5,29.96,WNW,292,8.3,-999.0,45,-99.99,,,0.00,Acu-Link.com,2013-03-05 19:21:00,
2013-03-05 13:36:00,69.3,43.3,29.95,North,0,10.9,-999.0,39,-99.99,,,0.00,Acu-Link.com,2013-03-05 19:36:00,
2013-03-05 13:51:00,69.4,42.7,29.95,NW,315,14.0,-999.0,38,-99.99,,,0.00,Acu-Link.com,2013-03-05 19:51:00,
2013-03-05 14:07:00,69.6,42.9,29.95,NNE,22,17.1,-999.0,38,-99.99,,,0.00,Acu-Link.com,2013-03-05 20:07:00,
2013-03-05 14:22:00,70.2,43.4,29.95,NNE,22,11.9,-999.0,38,-99.99,,,0.00,Acu-Link.com,2013-03-05 20:22:00,
2013-03-05 14:37:00,70.2,41.3,29.96,NNW,337,9.4,-999.0,35,-99.99,,,0.00,Acu-Link.com,2013-03-05 20:37:00,
2013-03-05 14:52:00,70.5,41.5,29.96,NNW,337,5.8,-999.0,35,-99.99,,,0.00,Acu-Link.com,2013-03-05 20:52:00,
2013-03-05 15:07:00,70.0,39.6,29.96,NNE,22,20.2,-999.0,33,-99.99,,,0.00,Acu-Link.com,2013-03-05 21:07:00,
2013-03-05 15:22:00,70.0,38.8,29.96,NNE,22,8.9,-999.0,32,-99.99,,,0.00,Acu-Link.com,2013-03-05 21:22:00,
2013-03-05 15:37:00,69.8,38.6,29.97,North,0,14.0,-999.0,32,-99.99,,,0.00,Acu-Link.com,2013-03-05 21:37:00,
2013-03-05 15:52:00,69.3,38.2,29.97,NNE,22,5.8,-999.0,32,-99.99,,,0.00,Acu-Link.com,2013-03-05 21:52:00,
2013-03-05 16:08:00,68.9,37.0,29.96,NNE,22,11.9,-999.0,31,-99.99,,,0.00,Acu-Link.com,2013-03-05 22:08:00,
2013-03-05 16:23:00,69.4,37.4,29.97,West,270,11.4,-999.0,31,-99.99,,,0.00,Acu-Link.com,2013-03-05 22:23:00,
2013-03-05 16:38:00,68.4,36.6,29.97,NNE,22,16.1,-999.0,31,-99.99,,,0.00,Acu-Link.com,2013-03-05 22:38:00,
2013-03-05 16:53:00,68.5,39.0,29.97,North,0,6.8,-999.0,34,-99.99,,,0.00,Acu-Link.com,2013-03-05 22:53:00,
2013-03-05 17:08:00,68.0,37.8,29.98,WNW,292,15.0,-999.0,33,-99.99,,,0.00,Acu-Link.com,2013-03-05 23:08:00,
2013-03-05 17:23:00,67.5,37.4,29.99,NNE,22,6.8,-999.0,33,-99.99,,,0.00,Acu-Link.com,2013-03-05 23:23:00,
2013-03-05 17:39:00,67.3,37.2,29.99,North,0,4.2,-999.0,33,-99.99,,,0.00,Acu-Link.com,2013-03-05 23:39:00,
2013-03-05 17:54:00,66.0,36.8,29.99,NNW,337,4.2,-999.0,34,-99.99,,,0.00,Acu-Link.com,2013-03-05 23:54:00,
2013-03-05 18:09:00,64.4,36.2,30.00,NNW,337,3.7,-999.0,35,-99.99,,,0.00,Acu-Link.com,2013-03-06 00:09:00,
2013-03-05 18:24:00,63.0,36.3,30.01,NNW,337,3.2,-999.0,37,-99.99,,,0.00,Acu-Link.com,2013-03-06 00:24:00,
2013-03-05 18:39:00,61.9,36.0,30.02,NNW,337,4.2,-999.0,38,-99.99,,,0.00,Acu-Link.com,2013-03-06 00:39:00,
2013-03-05 18:54:00,60.8,35.7,30.02,NW,315,3.7,-999.0,39,-99.99,,,0.00,Acu-Link.com,2013-03-06 00:54:00,
2013-03-05 19:09:00,59.7,36.0,30.03,NW,315,4.2,-999.0,41,-99.99,,,0.00,Acu-Link.com,2013-03-06 01:09:00,
2013-03-05 19:24:00,58.6,36.2,30.04,North,0,4.7,-999.0,43,-99.99,,,0.00,Acu-Link.com,2013-03-06 01:24:00,
2013-03-05 19:39:00,58.8,35.8,30.05,NW,315,2.7,-999.0,42,-99.99,,,0.00,Acu-Link.com,2013-03-06 01:39:00,
2013-03-05 19:55:00,58.3,35.9,30.06,NW,315,4.7,-999.0,43,-99.99,,,0.00,Acu-Link.com,2013-03-06 01:55:00,
2013-03-05 20:10:00,57.9,35.5,30.06,NNW,337,6.8,-999.0,43,-99.99,,,0.00,Acu-Link.com,2013-03-06 02:10:00,
2013-03-05 20:25:00,57.0,35.3,30.07,North,0,6.3,-999.0,44,-99.99,,,0.00,Acu-Link.com,2013-03-06 02:25:00,
2013-03-05 20:40:00,56.3,35.2,30.08,NNE,22,8.9,-999.0,45,-99.99,,,0.00,Acu-Link.com,2013-03-06 02:40:00,
2013-03-05 20:55:00,56.3,34.7,30.09,North,0,4.2,-999.0,44,-99.99,,,0.00,Acu-Link.com,2013-03-06 02:55:00,
2013-03-05 21:10:00,55.8,34.2,30.09,NNW,337,4.7,-999.0,44,-99.99,,,0.00,Acu-Link.com,2013-03-06 03:10:00,
2013-03-05 21:25:00,55.4,34.4,30.10,North,0,4.7,-999.0,45,-99.99,,,0.00,Acu-Link.com,2013-03-06 03:25:00,
2013-03-05 21:41:00,54.3,34.0,30.11,NNW,337,5.3,-999.0,46,-99.99,,,0.00,Acu-Link.com,2013-03-06 03:41:00,
2013-03-05 21:56:00,53.6,33.9,30.12,North,0,5.3,-999.0,47,-99.99,,,0.00,Acu-Link.com,2013-03-06 03:56:00,
2013-03-05 22:11:00,53.1,33.4,30.13,North,0,10.9,-999.0,47,-99.99,,,0.00,Acu-Link.com,2013-03-06 04:11:00,
2013-03-05 22:26:00,52.3,33.2,30.13,NNW,337,5.3,-999.0,48,-99.99,,,0.00,Acu-Link.com,2013-03-06 04:26:00,
2013-03-05 22:41:00,51.4,32.9,30.14,NNW,337,6.3,-999.0,49,-99.99,,,0.00,Acu-Link.com,2013-03-06 04:41:00,
2013-03-05 22:56:00,51.1,32.6,30.14,NNW,337,5.3,-999.0,49,-99.99,,,0.00,Acu-Link.com,2013-03-06 04:56:00,
2013-03-05 23:11:00,50.4,32.5,30.14,NNE,22,3.7,-999.0,50,-99.99,,,0.00,Acu-Link.com,2013-03-06 05:11:00,
2013-03-05 23:26:00,49.5,31.6,30.14,NNW,337,4.7,-999.0,50,-99.99,,,0.00,Acu-Link.com,2013-03-06 05:26:00,
2013-03-05 23:41:00,48.6,31.3,30.15,North,0,2.2,-999.0,51,-99.99,,,0.00,Acu-Link.com,2013-03-06 05:41:00,